• In Uzbekistan
  • List of Countries
  • For 7 days
  • Water Temperature
  • Satellite Maps
  • Weather Map
  • Weather Widgets
  • user-avatar
    Login

    Hourly Weather Lavrynove (Radyans'ke)

    Today, 28 May, Monday

    Time Temperature Precipitation Wind Pressure Humidity
    00:00 +13°C° 0 mm 5 mps 762 mmHg 69%
    01:00 +13°C° 0 mm 5 mps 762 mmHg 68%
    02:00 +12°C° 0 mm 5 mps 762 mmHg 67%
    03:00 +12°C° 0 mm 5 mps 762 mmHg 65%
    04:00 +12°C° 0 mm 5 mps 762 mmHg 65%
    05:00 +11°C° 0 mm 6 mps 762 mmHg 65%
    06:00 +11°C° 0 mm 6 mps 762 mmHg 65%
    07:00 +14°C° 0 mm 6 mps 762 mmHg 61%
    08:00 +16°C° 0 mm 6 mps 762 mmHg 56%
    09:00 +18°C° 0 mm 7 mps 762 mmHg 51%
    10:00 +20°C° 0 mm 7 mps 762 mmHg 49%
    11:00 +21°C° 0 mm 7 mps 762 mmHg 46%
    12:00 +22°C° 0 mm 7 mps 762 mmHg 44%
    13:00 +23°C° 0 mm 6 mps 762 mmHg 44%
    14:00 +23°C° 0 mm 6 mps 762 mmHg 44%
    15:00 +24°C° 0 mm 6 mps 762 mmHg 44%
    16:00 +23°C° 0 mm 6 mps 762 mmHg 47%
    17:00 +23°C° 0 mm 5 mps 761 mmHg 50%
    18:00 +23°C° 0 mm 5 mps 761 mmHg 53%
    19:00 +21°C° 0 mm 5 mps 762 mmHg 57%
    20:00 +20°C° 0 mm 4 mps 762 mmHg 61%
    21:00 +18°C° 0 mm 4 mps 762 mmHg 65%
    22:00 +18°C° 0 mm 4 mps 762 mmHg 68%
    23:00 +16°C° 0 mm 5 mps 762 mmHg 70%

    Tomorrow, 29 May, Tuesday

    Time Temperature Precipitation Wind Pressure Humidity
    00:00 +16°C° 0 mm 5 mps 762 mmHg 73%
    01:00 +16°C° 0 mm 6 mps 763 mmHg 74%
    02:00 +16°C° 0 mm 6 mps 763 mmHg 75%
    03:00 +16°C° 0 mm 7 mps 763 mmHg 76%
    04:00 +15°C° 0 mm 7 mps 763 mmHg 73%
    05:00 +15°C° 0 mm 8 mps 763 mmHg 70%
    06:00 +13°C° 0 mm 8 mps 763 mmHg 67%
    07:00 +15°C° 0 mm 8 mps 764 mmHg 63%
    08:00 +17°C° 0 mm 9 mps 764 mmHg 60%
    09:00 +18°C° 0 mm 9 mps 764 mmHg 56%
    10:00 +19°C° 0 mm 9 mps 764 mmHg 54%
    11:00 +19°C° 0 mm 9 mps 764 mmHg 51%
    12:00 +21°C° 0 mm 9 mps 764 mmHg 48%
    13:00 +22°C° 0 mm 9 mps 763 mmHg 48%
    14:00 +22°C° 0 mm 9 mps 763 mmHg 48%
    15:00 +22°C° 0 mm 9 mps 763 mmHg 48%
    16:00 +21°C° 0 mm 8 mps 763 mmHg 50%
    17:00 +21°C° 0 mm 8 mps 763 mmHg 51%
    18:00 +20°C° 0 mm 8 mps 762 mmHg 53%
    19:00 +18°C° 0 mm 7 mps 763 mmHg 55%
    20:00 +16°C° 0 mm 7 mps 763 mmHg 56%
    21:00 +15°C° 0 mm 7 mps 763 mmHg 58%
    22:00 +14°C° 0 mm 7 mps 763 mmHg 57%
    23:00 +12°C° 0 mm 7 mps 762 mmHg 56%

    Day after tomorrow, 30 May, Wednesday

    Time Temperature Precipitation Wind Pressure Humidity
    00:00 +12°C° 0 mm 7 mps 762 mmHg 55%
    01:00 +11°C° 0 mm 7 mps 762 mmHg 55%
    02:00 +11°C° 0 mm 6 mps 762 mmHg 54%
    03:00 +10°C° 0 mm 6 mps 762 mmHg 53%
    04:00 +10°C° 0 mm 6 mps 762 mmHg 55%
    05:00 +10°C° 0 mm 6 mps 761 mmHg 56%
    06:00 +10°C° 0 mm 6 mps 761 mmHg 58%
    07:00 +13°C° 0 mm 6 mps 761 mmHg 54%
    08:00 +15°C° 0 mm 6 mps 761 mmHg 50%
    09:00 +17°C° 0 mm 7 mps 761 mmHg 45%
    10:00 +18°C° 0 mm 7 mps 761 mmHg 44%
    11:00 +20°C° 0 mm 7 mps 760 mmHg 42%
    12:00 +21°C° 0 mm 6 mps 760 mmHg 40%
    13:00 +22°C° 0 mm 6 mps 760 mmHg 40%
    14:00 +22°C° 0 mm 6 mps 759 mmHg 40%
    15:00 +23°C° 0 mm 6 mps 759 mmHg 40%
    16:00 +23°C° 0 mm 6 mps 758 mmHg 43%
    17:00 +22°C° 0 mm 5 mps 758 mmHg 46%
    18:00 +22°C° 0 mm 5 mps 758 mmHg 49%
    19:00 +20°C° 0 mm 4 mps 758 mmHg 53%
    20:00 +19°C° 0 mm 4 mps 757 mmHg 57%
    21:00 +17°C° 0 mm 3 mps 757 mmHg 61%
    22:00 +15°C° 0 mm 4 mps 757 mmHg 61%
    23:00 +15°C° 0 mm 4 mps 757 mmHg 61%

    31 May, Thursday

    Time Temperature Precipitation Wind Pressure Humidity
    00:00 +14°C° 0 mm 4 mps 756 mmHg 61%
    01:00 +14°C° 0 mm 4 mps 756 mmHg 60%
    02:00 +13°C° 0 mm 4 mps 756 mmHg 60%
    03:00 +13°C° 0 mm 4 mps 755 mmHg 59%
    04:00 +13°C° 0 mm 4 mps 755 mmHg 60%
    05:00 +13°C° 0 mm 4 mps 755 mmHg 61%
    06:00 +13°C° 0 mm 4 mps 755 mmHg 63%
    07:00 +17°C° 0 mm 4 mps 754 mmHg 58%
    08:00 +19°C° 0 mm 4 mps 754 mmHg 54%
    09:00 +21°C° 0 mm 4 mps 754 mmHg 49%
    10:00 +22°C° 0 mm 4 mps 754 mmHg 45%
    11:00 +23°C° 0 mm 4 mps 754 mmHg 42%
    12:00 +26°C° 0 mm 4 mps 753 mmHg 38%
    13:00 +26°C° 0 mm 3 mps 753 mmHg 37%
    14:00 +27°C° 0 mm 3 mps 753 mmHg 36%
    15:00 +27°C° 0 mm 2 mps 752 mmHg 35%
    16:00 +27°C° 0 mm 2 mps 752 mmHg 37%
    17:00 +27°C° 0 mm 2 mps 752 mmHg 39%
    18:00 +27°C° 0 mm 2 mps 751 mmHg 41%
    19:00 +25°C° 0 mm 2 mps 751 mmHg 45%
    20:00 +23°C° 0 mm 2 mps 752 mmHg 49%
    21:00 +20°C° 0 mm 2 mps 752 mmHg 53%
    22:00 +19°C° 0 mm 2 mps 751 mmHg 54%
    23:00 +18°C° 0 mm 2 mps 751 mmHg 55%

    1 June, Friday

    Time Temperature Precipitation Wind Pressure Humidity
    00:00 +19°C° 0 mm 1 mps 751 mmHg 56%
    01:00 +17°C° 0 mm 2 mps 751 mmHg 57%
    02:00 +17°C° 0 mm 2 mps 751 mmHg 58%
    03:00 +17°C° 0 mm 2 mps 751 mmHg 59%
    04:00 +17°C° 0 mm 2 mps 751 mmHg 60%
    05:00 +19°C° 0 mm 1 mps 751 mmHg 61%
    06:00 +19°C° 0 mm 1 mps 751 mmHg 62%
    07:00 +20°C° 0 mm 2 mps 751 mmHg 58%
    08:00 +21°C° 0 mm 2 mps 751 mmHg 53%
    09:00 +24°C° 0 mm 2 mps 751 mmHg 49%
    10:00 +25°C° 0 mm 2 mps 751 mmHg 47%
    11:00 +26°C° 0 mm 2 mps 750 mmHg 45%
    12:00 +27°C° 0 mm 2 mps 750 mmHg 44%
    13:00 +27°C° 0 mm 2 mps 750 mmHg 44%
    14:00 +27°C° 0 mm 2 mps 750 mmHg 43%
    15:00 +27°C° 0 mm 2 mps 750 mmHg 43%
    16:00 +27°C° 0 mm 2 mps 750 mmHg 48%
    17:00 +26°C° 0 mm 2 mps 750 mmHg 53%
    18:00 +25°C° 0 mm 2 mps 750 mmHg 58%
    19:00 +24°C° 0 mm 2 mps 750 mmHg 65%
    20:00 +21°C° 0 mm 2 mps 750 mmHg 71%
    21:00 +20°C° 0 mm 2 mps 751 mmHg 77%
    22:00 +19°C° 0 mm 2 mps 751 mmHg 81%
    23:00 +18°C° 0 mm 3 mps 751 mmHg 85%

    2 June, Saturday

    Time Temperature Precipitation Wind Pressure Humidity
    00:00 +17°C° 0 mm 3 mps 751 mmHg 88%
    01:00 +17°C° 0 mm 3 mps 751 mmHg 89%
    02:00 +16°C° 0 mm 3 mps 751 mmHg 90%
    03:00 +16°C° 0 mm 3 mps 751 mmHg 91%
    04:00 +15°C° 0.2 mm 4 mps 751 mmHg 90%
    05:00 +15°C° 0.2 mm 4 mps 751 mmHg 90%
    06:00 +15°C° 0.2 mm 4 mps 752 mmHg 89%
    07:00 +16°C° 0.8 mm 5 mps 752 mmHg 88%
    08:00 +16°C° 0.8 mm 5 mps 752 mmHg 87%
    09:00 +16°C° 0.8 mm 5 mps 753 mmHg 85%
    10:00 +17°C° 0.5 mm 5 mps 753 mmHg 84%
    11:00 +17°C° 0.5 mm 6 mps 753 mmHg 82%
    12:00 +19°C° 0.5 mm 6 mps 754 mmHg 81%
    13:00 +19°C° 0.2 mm 6 mps 754 mmHg 79%
    14:00 +19°C° 0.2 mm 6 mps 754 mmHg 77%
    15:00 +20°C° 0.2 mm 7 mps 754 mmHg 75%
    16:00 +20°C° 0.1 mm 6 mps 754 mmHg 74%
    17:00 +20°C° 0.1 mm 6 mps 754 mmHg 73%
    18:00 +20°C° 0.1 mm 6 mps 754 mmHg 73%
    19:00 +19°C° 0 mm 6 mps 755 mmHg 76%
    20:00 +17°C° 0 mm 5 mps 755 mmHg 79%
    21:00 +16°C° 0 mm 5 mps 756 mmHg 82%
    22:00 +15°C° 0 mm 5 mps 756 mmHg 84%
    23:00 +14°C° 0 mm 5 mps 756 mmHg 86%
    Show more